This is the latest recevied weather packets stored in our database for station/object KC7UNY-13. If no packets are shown the sender has not sent any weather packets the latest 10 day(s).
| Time | Temp. | Humidity | Pressure | Rain* | Wind** | Luminosity | Snow |
|---|---|---|---|---|---|---|---|
| 1777915040 | 25° C | 38% | 1012.9 hPa | 0 mm | - | 324 W/m² | - |
| 1777914737 | 25° C | 38% | 1013 hPa | 0 mm | - | 411 W/m² | - |
| 1777914434 | 25° C | 39% | 1013 hPa | 0 mm | - | 341 W/m² | - |
| 1777914132 | 25° C | 38% | 1013.3 hPa | 0 mm | - | 361 W/m² | - |
| 1777913827 | 25° C | 38% | 1013.2 hPa | 0 mm | - | 388 W/m² | - |
| 1777913523 | 25° C | 38% | 1012.9 hPa | 0 mm | - | 337 W/m² | - |
| 1777913220 | 25° C | 38% | 1012.8 hPa | 0 mm | - | 383 W/m² | - |
| 1777912916 | 25° C | 38% | 1012.8 hPa | 0 mm | - | 359 W/m² | - |
| 1777912613 | 25° C | 38% | 1013.2 hPa | 0 mm | - | 318 W/m² | - |
| 1777912309 | 25° C | 38% | 1012.8 hPa | 0 mm | - | 250 W/m² | - |
| 1777912005 | 25° C | 38% | 1012.7 hPa | 0 mm | - | 313 W/m² | - |
| 1777911701 | 25.56° C | 38% | 1013 hPa | 0 mm | - | 417 W/m² | - |
| 1777911398 | 25.56° C | 38% | 1012.8 hPa | 0 mm | - | 400 W/m² | - |
| 1777911096 | 25° C | 39% | 1012.7 hPa | 0 mm | - | 407 W/m² | - |
| 1777910793 | 25° C | 39% | 1012.8 hPa | 0 mm | - | 328 W/m² | - |
| 1777910489 | 24.44° C | 40% | 1012.8 hPa | 0 mm | - | 317 W/m² | - |
| 1777910186 | 24.44° C | 39% | 1013 hPa | 0 mm | - | 375 W/m² | - |
| 1777909883 | 23.89° C | 40% | 1012.8 hPa | 0 mm | - | 294 W/m² | - |
| 1777909581 | 23.89° C | 39% | 1012.9 hPa | 0 mm | - | 278 W/m² | - |
| 1777909277 | 23.89° C | 40% | 1012.8 hPa | 0 mm | - | 244 W/m² | - |
| 1777908975 | 23.89° C | 40% | 1012.8 hPa | 0 mm | - | 212 W/m² | - |
| 1777908674 | 23.89° C | 41% | 1012.7 hPa | 0 mm | - | 200 W/m² | - |
| 1777908370 | 23.89° C | 42% | 1012.7 hPa | 0 mm | - | 205 W/m² | - |
| 1777908066 | 23.89° C | 42% | 1012.5 hPa | 0 mm | - | 227 W/m² | - |
| 1777907762 | 23.89° C | 44% | 1012.5 hPa | 0 mm | - | 200 W/m² | - |
* Rain latest hour (hover to see other rain measurements)
** Current wind speed in m/s (hover to see current wind gust speed)